Location: Erba
(45.8000°N, 9.2500°E)
Time: 12:19:41
(UTC+02:00)

ISS - Pass Details

Date: 04 July 2020
Orbit: 417 x 420 km, 51.6° (Epoch: 02 July)

Event Time Altitude Azimuth Distance (km) Brightness Sun altitude
Exits shadow 04:55:57 - 269° (W) 2,107 -0.6 -6.7°
Reaches altitude 10° 04:57:31 10° 276° (W) 1,494 -1.3 -6.5°
Maximum altitude 05:00:40 37° 346° (NNW) 669 -2.4 -6.1°
Drops below altitude 10° 05:03:49 10° 55° (NE) 1,497 0.9 -5.7°
Sets 05:06:01 0° 64° (ENE) 2,361 1.9 -5.4°
